View from above orbital plane
|
View from above satellite
|
Ground track
|
The orbit data is extracted from the following two-line orbital elements,
1 36510U 10013C 21058.70213790 .00000295 00000-0 56345-4 0 9998
2 36510 92.0213 184.9315 0022013 294.0573 65.8337 14.63307671580736
Epoch (UTC): | 27 February 2021 16:51:04 |
Eccentricity: | 0.0022013 |
inclination: | 92.0213° |
perigee height: | 667 km |
apogee height: | 698 km |
right ascension of ascending node: | 184.9315° |
argument of perigee: | 294.0573° |
revolutions per day: | 14.63307671 |
mean anomaly at epoch: | 65.8337° |
orbit number at epoch: | 58073 |
The dashed part of the orbit path shows where the satellite is in the earth's shadow,
|
|